{"data":{"norad_id":38733,"epoch":"2026-05-25T04:27:25.224768Z","epoch_age_seconds":49101,"freshness":"FRESH","line1":"1 38733U 12041A   26145.18570862  .00000056  00000+0  33610-3 0  9993","line2":"2 38733  82.4731  89.5668 0019609 123.2778 237.0183 12.42434234626892","mean_motion":12.42434234,"eccentricity":0.0019609,"inclination_deg":82.4731,"raan_deg":89.5668,"arg_perigee_deg":123.2778,"mean_anomaly_deg":237.0183,"bstar":0.0003361,"rev_number":62689,"period_min":115.90150694447,"perigee_km":1480.8600231772,"apogee_km":1511.7419941596,"semimajor_km":7874.4380086684,"source":"CELESTRAK","updated_at":"2026-05-25T13:37:55.304014Z"}}